{"data":{"norad_id":59584,"epoch":"2026-09-21T22:18:18.859680Z","epoch_age_seconds":44771,"freshness":"FRESH","line1":"1 59584U 24076W   26264.92938495 -.00000237  00000+0  89908-6 0  9991","line2":"2 59584  43.0029 340.8536 0000810 271.1562  88.9197 15.27575587136513","mean_motion":15.27575587,"eccentricity":8.1e-5,"inclination_deg":43.0029,"raan_deg":340.8536,"arg_perigee_deg":271.1562,"mean_anomaly_deg":88.9197,"bstar":8.9908e-7,"rev_number":13651,"period_min":94.267021040053,"perigee_km":482.50655303691,"apogee_km":483.61806732516,"semimajor_km":6861.199310181,"source":"CELESTRAK","updated_at":"2026-09-22T09:00:49.005948Z"}}